Location: Cherry Springs State Park
(41.6616°N, 77.8240°W)
Time: 06:38:42
(UTC-05:00)

Amateur Radio Satellites - All Passes

Search period start: 27 February 2015 06:08
Search period end: 28 February 2015 06:08
Location: Cherry Springs State Park, 41.6616°N, 77.8240°W

Satellite Date Start Highest point End Downlink Frequencies (MHz)
Time Altitude Azimuth
CUBESAT XI-V 27 Feb 06:16:04 06:20:42 60° 260° (W) 06:25:22 437.345
STRAND 1 27 Feb 06:20:30 06:25:39 86° 260° (W) 06:30:51 437.568
Cubesat XI-IV 27 Feb 06:38:23 06:43:49 83° 102° (ESE) 06:49:11 437.490
AIST 1 27 Feb 06:39:49 06:42:20 16° 87° (E) 06:45:03
CUTE-I 27 Feb 06:48:38 06:54:02 82° 286° (WNW) 06:59:24 437.470
RS-15 27 Feb 06:53:55 07:03:43 33° 31° (NNE) 07:14:05 29.354- 29.394
JAS-2 27 Feb 06:59:16 07:03:20 15° 302° (WNW) 07:07:09 435.910
PRISM 27 Feb 07:10:18 07:12:15 13° 271° (W) 07:14:00 437.425
HO-68 27 Feb 07:26:32 07:29:15 13° 85° (E) 07:32:30 435.675
AO-7 27 Feb 07:29:25 07:32:11 12° 317° (NW) 07:34:29 29.400- 29.500
PCSat 27 Feb 07:43:28 07:48:18 33° 249° (WSW) 07:53:02 145.827
CANX-2 27 Feb 07:56:11 07:58:25 14° 90° (E) 08:00:51 2200.000
SEEDS 27 Feb 08:00:05 08:01:32 12° 88° (E) 08:03:14 437.485
CUTE 1.7 + AOD 2 27 Feb 08:14:39 08:17:50 21° 93° (E) 08:21:08 437.475
AIST 1 27 Feb 08:15:32 08:19:40 43° 283° (WNW) 08:23:52
Cubesat XI-IV 27 Feb 08:20:23 08:23:17 14° 300° (WNW) 08:25:56 437.490
DOVE 4 27 Feb 08:27:26 08:30:40 21° 92° (E) 08:33:53 437.250
CUTE-I 27 Feb 08:31:22 08:33:22 12° 302° (WNW) 08:35:04 437.470
Oscar 11 27 Feb 08:38:26 08:39:23 11° 88° (E) 08:40:37 145.826/435.025
GONETS M04 27 Feb 08:43:42 08:51:55 44° 73° (ENE) 09:00:13
TIGRISAT 27 Feb 08:43:50 08:45:52 13° 64° (ENE) 08:48:03 435.000
BRITE-PL 27 Feb 08:45:32 08:50:17 76° 101° (ESE) 08:54:39 437.365/2234.400
ANTELSAT 27 Feb 08:54:15 08:57:06 18° 66° (ENE) 09:00:04 437.575/2403.000
CINEMA 3 27 Feb 09:04:35 09:08:10 27° 95° (E) 09:11:45 145.822/145.860
RS-15 27 Feb 09:06:24 09:17:54 89° 63° (ENE) 09:29:54 29.354- 29.394
DELFI C3 27 Feb 09:09:41 09:12:34 19° 92° (E) 09:15:34 145.870
GOMX 1 27 Feb 09:10:41 09:15:14 87° 283° (WNW) 09:19:29 467.674
HO-68 27 Feb 09:11:03 09:18:17 78° 104° (ESE) 09:25:29 435.675
COMPASS 1 27 Feb 09:12:09 09:16:19 65° 100° (E) 09:20:30 437.405
AAUSAT CUBESAT 2 27 Feb 09:12:46 09:16:54 57° 100° (E) 09:21:01 437.432
ZACube-1 27 Feb 09:13:45 09:15:32 13° 89° (E) 09:17:31 437.345
FUNcube-1 27 Feb 09:14:01 09:15:46 13° 89° (E) 09:17:42 145.935
UWE-3 27 Feb 09:22:54 09:25:58 20° 93° (E) 09:29:06 435.000/436.395/437.385
QB50P1 27 Feb 09:23:20 09:26:22 20° 67° (ENE) 09:29:31 145.935-145.965
O/OREOS (USA 219) 27 Feb 09:25:23 09:29:10 27° 104° (ESE) 09:33:04 437.305
SO-50 27 Feb 09:25:23 09:27:02 12° 31° (NNE) 09:28:51 436.795
QB50P2 27 Feb 09:25:35 09:28:46 21° 67° (ENE) 09:32:02 145.880/145.840
UKube-1 27 Feb 09:28:46 09:31:42 18° 92° (E) 09:34:45 .
ISS 27 Feb 09:29:48 09:31:56 17° 133° (SE) 09:34:10 145.825
CANX-2 27 Feb 09:30:36 09:34:43 48° 287° (WNW) 09:38:48 2200.000
SEEDS 27 Feb 09:33:39 09:37:49 58° 286° (WNW) 09:41:58 437.485
DUCHIFAT 1 27 Feb 09:43:34 09:47:20 31° 70° (ENE) 09:51:08 145.980
HUMSAT D 27 Feb 09:47:37 09:50:08 16° 91° (E) 09:52:48 437.325/437.525
CUTE 1.7 + AOD 2 27 Feb 09:50:03 09:53:53 33° 289° (WNW) 09:57:40 437.475
UNISAT 6 27 Feb 09:50:41 09:55:07 68° 75° (ENE) 09:59:28 437.425
CUBEBUG 2 27 Feb 09:51:20 09:55:24 51° 99° (E) 09:59:27 437.445
BUGSAT 1 27 Feb 09:53:39 09:57:21 30° 70° (ENE) 10:01:09 437.445
POLYITAN 1 27 Feb 09:58:43 10:02:50 46° 73° (ENE) 10:06:59 437.675
POPSAT HIP 1 27 Feb 10:01:15 10:05:23 48° 73° (ENE) 10:09:33 437.405
DOVE 4 27 Feb 10:04:40 10:08:36 33° 290° (WNW) 10:12:20 437.250
Oscar 11 27 Feb 10:11:48 10:16:07 66° 285° (WNW) 10:20:24 145.826/435.025
AISAT 27 Feb 10:14:51 10:18:30 25° 94° (E) 10:22:11 437.250
TIGRISAT 27 Feb 10:17:47 10:22:13 63° 259° (W) 10:26:33 435.000
50 SAT 27 Feb 10:24:41 10:28:08 29° 96° (E) 10:31:36 437.505
NANOSAT C BR1 27 Feb 10:25:49 10:30:07 88° 257° (WSW) 10:34:26 145.865
VELOX 1 27 Feb 10:26:04 10:30:03 32° 96° (E) 10:34:02 145.980
BRITE-PL 27 Feb 10:26:21 10:28:07 12° 300° (WNW) 10:29:38 437.365/2234.400
ESTCUBE 1 27 Feb 10:27:38 10:30:28 17° 90° (E) 10:33:28 437.505/2401.250
DX 1 27 Feb 10:29:10 10:33:35 88° 102° (ESE) 10:37:56 434.975-435.025
ANTELSAT 27 Feb 10:29:21 10:33:38 45° 261° (W) 10:37:51 437.575/2403.000
CUBEBUG 1 27 Feb 10:32:44 10:35:29 17° 90° (E) 10:38:23 437.445
GONETS M04 27 Feb 10:40:43 10:48:45 42° 272° (W) 10:56:41
CINEMA 3 27 Feb 10:41:54 10:45:20 24° 292° (WNW) 10:48:40 145.822/145.860
DELFI C3 27 Feb 10:44:12 10:47:55 34° 289° (WNW) 10:51:35 145.870
ZACube-1 27 Feb 10:48:16 10:52:20 51° 286° (WNW) 10:56:21 437.345
FUNcube-1 27 Feb 10:48:29 10:52:32 52° 286° (WNW) 10:56:32 145.935
COMPASS 1 27 Feb 10:49:55 10:51:35 12° 296° (WNW) 10:53:01 437.405
AAUSAT CUBESAT 2 27 Feb 10:50:05 10:52:09 13° 295° (WNW) 10:54:02 437.432
QB50P1 27 Feb 10:58:01 11:02:02 38° 263° (W) 11:06:03 145.935-145.965
UWE-3 27 Feb 10:58:54 11:02:38 32° 289° (WNW) 11:06:19 435.000/436.395/437.385
HO-68 27 Feb 11:00:01 11:05:21 22° 302° (WNW) 11:10:26 435.675
QB50P2 27 Feb 11:00:31 11:04:30 35° 263° (W) 11:08:27 145.880/145.840
SO-50 27 Feb 11:03:53 11:08:45 54° 53° (NE) 11:13:36 436.795
UKube-1 27 Feb 11:03:59 11:08:05 40° 289° (WNW) 11:12:08 .
O/OREOS (USA 219) 27 Feb 11:04:28 11:08:32 30° 301° (WNW) 11:12:35 437.305
ISS 27 Feb 11:04:56 11:08:06 55° 328° (NNW) 11:11:18 145.825
DANDE 27 Feb 11:13:41 11:16:08 25° 73° (ENE) 11:18:24 436.750
DUCHIFAT 1 27 Feb 11:19:44 11:23:13 23° 266° (W) 11:26:37 145.980
RS-15 27 Feb 11:20:26 11:29:11 24° 256° (WSW) 11:37:34 29.354- 29.394
SPROUT 27 Feb 11:20:49 11:22:50 13° 89° (E) 11:25:05 437.525
HUMSAT D 27 Feb 11:22:18 11:26:10 40° 288° (WNW) 11:30:00 437.325/437.525
BUGSAT 1 27 Feb 11:29:23 11:32:53 24° 266° (W) 11:36:20 437.445
CUBEBUG 2 27 Feb 11:29:30 11:31:45 14° 295° (WNW) 11:33:50 437.445
UNISAT 6 27 Feb 11:31:07 11:32:27 11° 272° (W) 11:33:30 437.425
POLYITAN 1 27 Feb 11:36:23 11:39:05 16° 270° (W) 11:41:35 437.675
TISAT 1 27 Feb 11:37:53 11:40:49 19° 92° (E) 11:43:50 437.305
POPSAT HIP 1 27 Feb 11:39:04 11:41:37 15° 270° (W) 11:43:59 437.405
AISAT 27 Feb 11:51:12 11:55:09 31° 291° (WNW) 11:59:01 437.250
Oscar 19 27 Feb 11:54:24 11:58:35 27° 67° (ENE) 12:02:53 437.125/150
50 SAT 27 Feb 11:59:59 12:03:02 21° 291° (WNW) 12:05:59 437.505
VELOX 1 27 Feb 12:02:51 12:06:31 25° 292° (WNW) 12:10:04 145.980
ESTCUBE 1 27 Feb 12:03:16 12:07:41 48° 288° (WNW) 12:12:03 437.505/2401.250
CUSAT 1 27 Feb 12:06:05 12:08:21 24° 266° (W) 12:10:30 437.405
CUBEBUG 1 27 Feb 12:07:55 12:12:10 45° 288° (WNW) 12:16:21 437.445
Gurwin Techsat 1B 27 Feb 12:34:43 12:37:59 17° 62° (ENE) 12:41:27 435.225
SWISSCUBE 27 Feb 12:41:55 12:44:54 17° 90° (E) 12:48:03 437.505
ISS 27 Feb 12:42:52 12:45:05 17° 348° (NNW) 12:47:17 145.825
SO-50 27 Feb 12:45:21 12:48:58 20° 249° (WSW) 12:52:26 436.795
BEESAT 27 Feb 12:51:01 12:54:20 19° 91° (E) 12:57:48 436.000
AO-7 27 Feb 12:53:34 12:56:26 13° 44° (NE) 12:59:47 29.400- 29.500
SPROUT 27 Feb 12:55:08 12:59:21 53° 286° (WNW) 13:03:31 437.525
TISAT 1 27 Feb 13:12:52 13:16:49 37° 289° (WNW) 13:20:40 437.305
ITUPSAT 1 27 Feb 13:15:14 13:19:34 32° 96° (E) 13:23:54 437.325
ITAMSAT 1 27 Feb 13:22:24 13:27:31 60° 73° (ENE) 13:32:42 435.822/435.867
HORYU 2 27 Feb 13:29:05 13:30:50 12° 63° (ENE) 13:32:46 437.375
Oscar 19 27 Feb 13:33:00 13:37:48 38° 263° (W) 13:42:35 437.125/150
KKS-1 27 Feb 14:03:11 14:06:20 19° 92° (E) 14:09:36 437.445
Gurwin Techsat 1B 27 Feb 14:12:11 14:17:28 67° 258° (WSW) 14:22:48 435.225
STARS 27 Feb 14:18:20 14:21:17 18° 92° (E) 14:24:22 437.465
SWISSCUBE 27 Feb 14:18:27 14:23:09 53° 288° (WNW) 14:27:49 437.505
ISS 27 Feb 14:20:26 14:22:27 15° 8° (N) 14:24:28 145.825
BEESAT 27 Feb 14:27:52 14:32:29 46° 289° (WNW) 14:37:03 436.000
AO-7 27 Feb 14:39:34 14:47:32 53° 65° (ENE) 14:55:35 29.400- 29.500
ITUPSAT 1 27 Feb 14:53:15 14:57:23 28° 292° (WNW) 15:01:24 437.325
HORYU 2 27 Feb 15:02:34 15:07:00 70° 259° (W) 15:11:26 437.375
ITAMSAT 1 27 Feb 15:04:05 15:07:31 17° 270° (W) 15:10:45 435.822/435.867
JAS-2 27 Feb 15:25:13 15:30:23 50° 70° (ENE) 15:36:09 435.910
YUBILEINY 27 Feb 15:37:34 15:45:03 35° 86° (E) 15:52:47 435.215
KKS-1 27 Feb 15:39:02 15:43:11 39° 289° (WNW) 15:47:17 437.445
M-CUBED/EXP-1 PRIME 27 Feb 15:53:21 15:56:26 20° 99° (E) 15:59:48 437.505
STARS 27 Feb 15:53:51 15:58:00 41° 289° (WNW) 16:02:06 437.465
ISS 27 Feb 15:56:28 15:59:33 38° 27° (NNE) 16:02:37 145.825
AUBIESAT-1 27 Feb 15:58:26 16:01:34 21° 99° (E) 16:04:58 437.475
Cubesat XI-IV 27 Feb 16:22:48 16:26:26 19° 63° (ENE) 16:30:15 437.490
MOZHAYETS 4 27 Feb 16:24:05 16:28:11 31° 95° (E) 16:32:20
CUTE-I 27 Feb 16:32:23 16:36:26 23° 64° (ENE) 16:40:38 437.470
AO-7 27 Feb 16:33:05 16:40:39 36° 264° (W) 16:48:04 29.400- 29.500
BEESAT 2 27 Feb 17:01:54 17:02:29 10° 109° (ESE) 17:03:19 435.950
JAS-2 27 Feb 17:11:56 17:16:03 21° 271° (W) 17:20:17 435.910
M-CUBED/EXP-1 PRIME 27 Feb 17:27:38 17:31:27 38° 293° (WNW) 17:35:32 437.505
AUBIESAT-1 27 Feb 17:32:42 17:36:31 37° 293° (WNW) 17:40:35 437.475
ISS 27 Feb 17:33:05 17:35:53 26° 224° (SW) 17:38:40 145.825
YUBILEINY 27 Feb 17:33:09 17:41:38 52° 285° (WNW) 17:50:08 435.215
HO-68 27 Feb 17:57:42 17:59:58 12° 50° (NE) 18:02:39 435.675
Cubesat XI-IV 27 Feb 18:00:49 18:06:07 60° 259° (W) 18:11:28 437.490
MOZHAYETS 4 27 Feb 18:01:26 18:05:21 27° 292° (WNW) 18:09:10
CUTE-I 27 Feb 18:11:02 18:16:13 49° 261° (W) 18:21:27 437.470
CUBESAT XI-V 27 Feb 18:12:53 18:17:09 33° 96° (E) 18:21:26 437.345
BEESAT 3 27 Feb 18:14:28 18:18:33 77° 122° (ESE) 18:22:43 437.485
AIST 2 27 Feb 18:14:31 18:17:59 25° 114° (ESE) 18:21:34 435.215
VERMONT LUNAR 27 Feb 18:15:18 18:17:29 16° 150° (SSE) 18:19:45 437.305
BRITE-PL 27 Feb 18:20:20 18:22:53 14° 62° (ENE) 18:25:40 437.365/2234.400
AIST 1 27 Feb 18:22:21 18:26:36 45° 77° (ENE) 18:30:51
STRAND 1 27 Feb 18:31:15 18:35:48 31° 95° (E) 18:40:23 437.568
BEESAT 2 27 Feb 18:36:01 18:40:08 74° 303° (WNW) 18:44:19 435.950
GOMX 1 27 Feb 18:42:59 18:45:38 14° 63° (ENE) 18:48:29 467.674
PRISM 27 Feb 18:50:03 18:54:18 88° 103° (ESE) 18:58:32 437.425
CANX-2 27 Feb 18:50:55 18:52:17 12° 64° (ENE) 18:53:52 2200.000
CUTE 1.7 + AOD 2 27 Feb 19:08:43 19:11:19 17° 66° (ENE) 19:14:03 437.475
PHONESAT 2.4 27 Feb 19:31:15 19:34:20 26° 155° (SSE) 19:37:27 2401.200-2431.200
DOVE 4 27 Feb 19:32:32 19:36:49 28° 69° (ENE) 19:41:04 437.250
O/OREOS (USA 219) 27 Feb 19:34:23 19:38:55 54° 64° (ENE) 19:43:24 437.305
HO-68 27 Feb 19:39:27 19:46:24 60° 69° (ENE) 19:53:26 435.675
CUBESAT XI-V 27 Feb 19:50:33 19:54:30 26° 292° (WNW) 19:58:19 437.345
VERMONT LUNAR 27 Feb 19:51:36 19:55:00 50° 165° (SSE) 19:58:24 437.305
AIST 2 27 Feb 19:52:33 19:56:28 34° 311° (NW) 20:00:26 435.215
BEESAT 3 27 Feb 19:54:51 19:57:14 14° 321° (NW) 19:59:30 437.485
BRITE-PL 27 Feb 19:55:02 20:00:45 88° 81° (E) 20:06:19 437.365/2234.400
DELFI C3 27 Feb 19:59:18 20:01:09 13° 65° (ENE) 20:03:10 145.870
AIST 1 27 Feb 20:01:14 20:03:56 15° 273° (W) 20:06:27
COMPASS 1 27 Feb 20:03:50 20:07:47 45° 73° (ENE) 20:11:47 437.405
AAUSAT CUBESAT 2 27 Feb 20:04:08 20:07:59 39° 72° (ENE) 20:11:52 437.432
CINEMA 3 27 Feb 20:06:14 20:10:25 30° 70° (ENE) 20:14:31 145.822/145.860
STRAND 1 27 Feb 20:10:26 20:14:59 32° 292° (WNW) 20:19:29 437.568
ZACube-1 27 Feb 20:10:49 20:12:36 13° 64° (ENE) 20:14:34 437.345
FUNcube-1 27 Feb 20:10:56 20:12:38 12° 64° (ENE) 20:14:32 145.935
BEESAT 2 27 Feb 20:17:42 20:19:08 11° 324° (NW) 20:20:25 435.950
GOMX 1 27 Feb 20:17:45 20:23:13 83° 257° (WSW) 20:28:30 467.674
UWE-3 27 Feb 20:20:41 20:23:50 20° 68° (ENE) 20:27:04 435.000/436.395/437.385
CANX-2 27 Feb 20:23:33 20:27:45 67° 259° (W) 20:31:58 2200.000
UKube-1 27 Feb 20:24:30 20:27:17 17° 65° (ENE) 20:30:13 .
SEEDS 27 Feb 20:25:50 20:30:01 83° 258° (WSW) 20:34:14 437.485
HUMSAT D 27 Feb 20:40:57 20:42:54 13° 65° (ENE) 20:45:02 437.325/437.525
PCSat 27 Feb 20:42:12 20:46:51 31° 110° (ESE) 20:51:37 145.827
CUTE 1.7 + AOD 2 27 Feb 20:42:54 20:46:57 44° 262° (W) 20:51:00 437.475
CUBEBUG 2 27 Feb 20:49:36 20:53:58 46° 73° (ENE) 20:58:14 437.445
Oscar 11 27 Feb 21:06:33 21:10:52 84° 257° (WSW) 21:15:12 145.826/435.025
PHONESAT 2.4 27 Feb 21:08:54 21:12:31 66° 171° (S) 21:16:08 2401.200-2431.200
DOVE 4 27 Feb 21:09:37 21:14:27 37° 263° (W) 21:19:06 437.250
50 SAT 27 Feb 21:12:21 21:15:12 20° 68° (ENE) 21:18:09 437.505
AISAT 27 Feb 21:13:16 21:16:53 25° 68° (ENE) 21:20:34 437.250
O/OREOS (USA 219) 27 Feb 21:15:15 21:17:55 15° 260° (W) 21:20:22 437.305
VELOX 1 27 Feb 21:24:07 21:28:01 30° 69° (ENE) 21:31:59 145.980
DX 1 27 Feb 21:24:46 21:29:09 79° 75° (ENE) 21:33:34 434.975-435.025
ESTCUBE 1 27 Feb 21:28:05 21:30:54 17° 65° (ENE) 21:33:52 437.505/2401.250
HO-68 27 Feb 21:28:44 21:34:38 26° 268° (W) 21:40:21 435.675
VERMONT LUNAR 27 Feb 21:29:20 21:32:49 75° 183° (S) 21:36:18 437.305
CUBEBUG 1 27 Feb 21:29:48 21:32:22 16° 65° (ENE) 21:35:07 437.445
DELFI C3 27 Feb 21:32:02 21:35:58 52° 260° (W) 21:39:56 145.870
BRITE-PL 27 Feb 21:37:22 21:39:59 13° 274° (W) 21:42:12 437.365/2234.400
AAUSAT CUBESAT 2 27 Feb 21:41:04 21:43:52 17° 269° (W) 21:46:30 437.432
COMPASS 1 27 Feb 21:41:20 21:43:49 15° 270° (W) 21:46:07 437.405
CINEMA 3 27 Feb 21:43:22 21:47:37 29° 265° (W) 21:51:40 145.822/145.860
ZACube-1 27 Feb 21:44:08 21:48:33 66° 259° (W) 21:52:52 437.345
FUNcube-1 27 Feb 21:44:09 21:48:33 67° 259° (W) 21:52:52 145.935
UNISAT 6 27 Feb 21:44:16 21:46:11 13° 89° (E) 21:48:21 437.425
GONETS M04 27 Feb 21:44:55 21:53:05 50° 90° (E) 22:01:23
UWE-3 27 Feb 21:55:55 22:00:11 40° 262° (W) 22:04:19 435.000/436.395/437.385
UKube-1 27 Feb 21:58:56 22:03:08 46° 261° (W) 22:07:21 .
TIGRISAT 27 Feb 22:09:48 22:13:17 24° 94° (E) 22:16:51 435.000
NANOSAT C BR1 27 Feb 22:12:21 22:14:38 15° 90° (E) 22:17:05 145.865
HUMSAT D 27 Feb 22:14:08 22:18:18 56° 260° (W) 22:22:25 437.325/437.525
SPROUT 27 Feb 22:16:19 22:17:55 12° 63° (ENE) 22:19:44 437.525
ANTELSAT 27 Feb 22:21:11 22:25:04 33° 97° (E) 22:29:01 437.575/2403.000
PCSat 27 Feb 22:25:07 22:30:11 39° 308° (NW) 22:35:16 145.827
CUBEBUG 2 27 Feb 22:27:54 22:30:57 17° 269° (W) 22:33:46 437.445
TISAT 1 27 Feb 22:31:12 22:33:44 16° 65° (ENE) 22:36:26 437.305
QB50P1 27 Feb 22:43:07 22:46:56 32° 96° (E) 22:50:44 145.935-145.965
QB50P2 27 Feb 22:45:42 22:49:35 35° 97° (E) 22:53:28 145.880/145.840
50 SAT 27 Feb 22:46:25 22:50:03 32° 263° (W) 22:53:39 437.505
PHONESAT 2.4 27 Feb 22:47:18 22:50:55 67° 189° (S) 22:54:31 2401.200-2431.200
AISAT 27 Feb 22:49:18 22:53:22 32° 263° (W) 22:57:26 437.250
VELOX 1 27 Feb 23:00:50 23:04:38 26° 266° (W) 23:08:21 145.980
ESTCUBE 1 27 Feb 23:03:02 23:07:26 50° 261° (W) 23:11:52 437.505/2401.250
DUCHIFAT 1 27 Feb 23:03:37 23:07:46 54° 100° (E) 23:11:53 145.980
CUBEBUG 1 27 Feb 23:04:01 23:08:22 53° 260° (W) 23:12:45 437.445
VERMONT LUNAR 27 Feb 23:07:18 23:10:36 40° 199° (SSW) 23:13:52 437.305
BUGSAT 1 27 Feb 23:10:51 23:14:56 49° 99° (E) 23:18:56 437.445
UNISAT 6 27 Feb 23:19:13 23:23:24 54° 286° (WNW) 23:27:35 437.425
POLYITAN 1 27 Feb 23:19:50 23:24:06 87° 103° (ESE) 23:28:19 437.675
POPSAT HIP 1 27 Feb 23:22:05 23:26:21 90° 348° (NNW) 23:30:34 437.405
RS-15 27 Feb 23:30:01 23:40:30 58° 114° (ESE) 23:51:11 29.354- 29.394
CUSAT 1 27 Feb 23:30:29 23:36:00 28° 95° (E) 23:40:35 437.405
GONETS M04 27 Feb 23:42:19 23:50:14 37° 290° (WNW) 23:58:02
TIGRISAT 27 Feb 23:46:22 23:50:04 28° 290° (WNW) 23:53:43 435.000
NANOSAT C BR1 27 Feb 23:46:45 23:50:50 47° 287° (WNW) 23:54:52 145.865
SWISSCUBE 27 Feb 23:48:54 23:52:21 21° 65° (ENE) 23:55:57 437.505
SPROUT 27 Feb 23:49:12 23:53:31 69° 259° (WSW) 23:57:52 437.525
BEESAT 27 Feb 23:57:54 00:01:35 23° 66° (ENE) 00:05:22 436.000
ANTELSAT 27 Feb 23:58:26 00:01:44 22° 292° (WNW) 00:04:58 437.575/2403.000
TISAT 1 28 Feb 00:05:03 00:09:13 48° 261° (W) 00:13:23 437.305
QB50P1 28 Feb 00:19:21 00:22:40 22° 292° (WNW) 00:25:53 145.935-145.965
QB50P2 28 Feb 00:22:07 00:25:18 20° 293° (WNW) 00:28:23 145.880/145.840
ITUPSAT 1 28 Feb 00:22:20 00:26:44 39° 70° (ENE) 00:31:12 437.325
DANDE 28 Feb 00:22:40 00:29:57 67° 98° (E) 00:35:31 436.750
PHONESAT 2.4 28 Feb 00:25:58 00:29:06 28° 204° (SSW) 00:32:13 2401.200-2431.200
DUCHIFAT 1 28 Feb 00:40:56 00:43:13 14° 296° (WNW) 00:45:19 145.980
VERMONT LUNAR 28 Feb 00:46:46 00:48:00 11° 213° (SSW) 00:49:07 437.305
BUGSAT 1 28 Feb 00:47:35 00:50:03 15° 295° (WNW) 00:52:21 437.445
KKS-1 28 Feb 01:01:59 01:05:08 20° 66° (ENE) 01:08:26 437.445
CUSAT 1 28 Feb 01:12:34 01:18:51 41° 283° (WNW) 01:23:42 437.405
STARS 28 Feb 01:16:02 01:18:58 18° 66° (ENE) 01:22:02 437.465
BEESAT 2 28 Feb 01:19:34 01:20:45 11° 36° (NE) 01:22:03 435.950
SO-50 28 Feb 01:20:38 01:23:16 16° 110° (ESE) 01:26:09 436.795
SWISSCUBE 28 Feb 01:25:23 01:29:57 45° 262° (W) 01:34:33 437.505
BEESAT 28 Feb 01:34:46 01:39:15 39° 263° (W) 01:43:43 436.000
ITAMSAT 1 28 Feb 01:35:55 01:39:44 21° 92° (E) 01:43:41 435.822/435.867
RS-15 28 Feb 01:42:52 01:53:16 46° 318° (NW) 02:03:49 29.354- 29.394
Oscar 19 28 Feb 01:43:49 01:48:57 74° 102° (ESE) 01:54:05 437.125/150
YUBILEINY 28 Feb 01:47:41 01:52:53 17° 58° (ENE) 01:58:34 435.215
ITUPSAT 1 28 Feb 02:00:59 02:04:47 23° 267° (W) 02:08:31 437.325
DANDE 28 Feb 02:08:29 02:13:29 20° 289° (WNW) 02:17:30 436.750
Gurwin Techsat 1B 28 Feb 02:28:13 02:33:22 48° 99° (E) 02:38:31 435.225
BEESAT 3 28 Feb 02:33:39 02:37:41 49° 53° (NE) 02:41:40 437.485
AIST 2 28 Feb 02:35:56 02:39:14 21° 44° (NE) 02:42:33 435.215
KKS-1 28 Feb 02:37:17 02:41:32 42° 262° (W) 02:45:48 437.445
AO-7 28 Feb 02:43:16 02:47:07 14° 86° (E) 02:51:34 29.400- 29.500
M-CUBED/EXP-1 PRIME 28 Feb 02:43:39 02:46:11 21° 64° (ENE) 02:48:52 437.505
AUBIESAT-1 28 Feb 02:48:17 02:50:51 21° 64° (ENE) 02:53:32 437.475
STARS 28 Feb 02:50:52 02:55:09 45° 261° (W) 02:59:25 437.465
HORYU 2 28 Feb 02:54:26 02:57:50 22° 93° (E) 03:01:20 437.375
BEESAT 2 28 Feb 02:55:34 02:59:45 72° 56° (NE) 03:03:51 435.950
SO-50 28 Feb 02:58:47 03:03:21 61° 306° (NW) 03:08:05 436.795
ITAMSAT 1 28 Feb 03:14:31 03:19:34 49° 289° (WNW) 03:24:33 435.822/435.867
Oscar 19 28 Feb 03:24:53 03:27:46 15° 298° (WNW) 03:30:27 437.125/150
MOZHAYETS 4 28 Feb 03:26:29 03:30:25 30° 70° (ENE) 03:34:27
YUBILEINY 28 Feb 03:42:34 03:51:28 81° 81° (E) 04:00:19 435.215
RS-15 28 Feb 04:01:21 04:09:30 22° 351° (N) 04:17:46 29.354- 29.394
Gurwin Techsat 1B 28 Feb 04:08:55 04:13:04 23° 295° (WNW) 04:17:05 435.225
BEESAT 3 28 Feb 04:12:52 04:15:25 16° 249° (WSW) 04:17:49 437.485
AIST 2 28 Feb 04:13:59 04:18:05 45° 243° (WSW) 04:22:05 435.215
JAS-2 28 Feb 04:17:04 04:24:12 53° 98° (E) 04:31:49 435.910
M-CUBED/EXP-1 PRIME 28 Feb 04:18:40 04:21:11 20° 261° (W) 04:23:40 437.505
AUBIESAT-1 28 Feb 04:23:16 04:25:46 19° 261° (W) 04:28:15 437.475
HORYU 2 28 Feb 04:30:33 04:34:37 35° 290° (WNW) 04:38:38 437.375
AO-7 28 Feb 04:33:06 04:41:27 78° 106° (ESE) 04:49:45 29.400- 29.500
BEESAT 2 28 Feb 04:36:24 04:37:24 11° 251° (WSW) 04:38:11 435.950
SO-50 28 Feb 04:43:01 04:44:59 12° 328° (NNW) 04:46:48 436.795
MOZHAYETS 4 28 Feb 05:03:48 05:07:41 26° 266° (W) 05:11:30
CUBESAT XI-V 28 Feb 05:16:34 05:20:45 34° 70° (ENE) 05:25:00 437.345
PCSat 28 Feb 05:29:25 05:34:05 29° 48° (NE) 05:38:47 145.827
PRISM 28 Feb 05:40:33 05:44:38 66° 74° (ENE) 05:48:47 437.425
YUBILEINY 28 Feb 05:41:06 05:47:22 21° 280° (W) 05:53:13 435.215
STRAND 1 28 Feb 05:47:12 05:52:05 47° 71° (ENE) 05:57:02 437.568
